ORBCOMM FM36 [+]

Last updated on Fri May 12 2023 00:03:03 GMT+0000 (Coordinated Universal Time)

1 25984U 99065E 23131.24216705 .00001534 00000+0 59103-3 0 9997 2 25984 45.0392 117.2579 0002984 11.1799 348.9115 14.34292726224049
UTC large
Height (km)
Speed (km/s)
/
Latitude / Longitude
Inclination (degrees)
Orbital Period (minutes)
Azimuth
Elevation
Range (km)
Doppler Factor

Next 0 passes for location: London (51.5072 / 0.1276)

Sorry there are no passes over London.
ORBCOMM FM36 [+]